Starlink 31473

operational
NORAD ID: 59339 Int'l Des: 2024-057 Owner: SPXS Country: US Constellation: starlink
LEOCIRCULAR

Starlink 31473について

説明を読み込み中...

リアルタイム位置

3D地球を読み込み中...

次回通過

高度履歴

Altitude vs Time

uPlot chart will show altitude changes over time

軌道要素

1 59339U 24057V 25304.96343685 .00000320 00000-0 21155-4 0 9998
2 59339 43.0036 193.9183 0001985 294.1965 65.8679 15.27565802 90157
Epoch: Oct 31, 2025 • Age: 37 hours

現在のステータス

高度 487.2 km
速度 7.63 km/s
衛星直下点 41.64°N, 76.82°E
打ち上げ日 Mar 25, 2024
運用期間 1.6 years
タイプ internet

技術仕様

分類 Payload
質量 730.00 kg
乾燥質量 700.00 kg
総質量 730.00 kg
長さ 0.30 m
直径 4.10 m
スパン 29.00 m
形状 Box + pan
製造者 SPXS
バスタイプ Starlink V2M
フェーズステータス In Orbit
所有者/国 SPXS/US

大規模コンステレーション

Loading constellations...